Weather History for KCMX - April, 2013

Change the Weather History Date:

Saturday, April 6, 2013

  Actual Average Record
Temperature  
Mean Temperature 29 °F -  
Max Temperature 32 °F - - ()
Min Temperature 26 °F - - ()
Degree Days  
Heating Degree Days 36    
Moisture  
Dew Point 27 °F    
Average Humidity 92    
Maximum Humidity 100    
Minimum Humidity 69    
Precipitation  
Precipitation 0.37 in - - ()
Sea Level Pressure  
Sea Level Pressure 29.83 in    
Wind  
Wind Speed 10 mph (East)    
Max Wind Speed 17 mph    
Max Gust Speed 24 mph    
Visibility 3 miles    
Events Fog , Snow    
T = Trace of Precipitation, MM = Missing Value Source: NWS Daily Summary

Daily Weather History Graph

Daily Weather History Graph

Search for Another Location

Airport or City:

Trip Planner

Search our weather history database for the weather conditions in past years. The results will help you decide how hot, cold, wet, or windy it might be!

Date:

Astronomy

Apr. 06, 2013 Rise Set
Actual Time 7:22 AM EDT 8:30 PM EDT
Civil Twilight 6:51 AM EDT 9:02 PM EDT
Nautical Twilight 6:13 AM EDT 9:39 PM EDT
Astronomical Twilight 5:33 AM EDT 10:19 PM EDT
Moon 5:20 AM EDT (4/6) 4:46 PM EDT (4/6)
Length of Visible Light 14h 10m
Length of Day
13h 08m
Waning Crescent, 15% of the Moon is Illuminated
Apr 6
Waning Crescent
Apr 10
New
Apr 18
First Quarter
Apr 25
Full
May 2
Last Quarter

Hourly Weather History & Observations

Time (EDT) Temp. Windchill Dew Point Humidity Pressure Visibility Wind Dir Wind Speed Gust Speed Precip Events Conditions
12:53 AM 26.1 °F 17.6 °F 19.0 °F 75% 30.15 in 10.0 mi East 8.1 mph - N/A   Scattered Clouds
1:53 AM 27.0 °F 18.7 °F 18.0 °F 69% 30.14 in 10.0 mi East 8.1 mph - N/A   Overcast
2:53 AM 27.0 °F 19.5 °F 19.9 °F 75% 30.12 in 10.0 mi East 6.9 mph - N/A   Overcast
3:53 AM 27.0 °F 19.5 °F 19.9 °F 75% 30.10 in 10.0 mi East 6.9 mph - N/A   Overcast
4:53 AM 28.0 °F 21.7 °F 19.9 °F 72% 30.08 in 10.0 mi ESE 5.8 mph - N/A   Overcast
5:53 AM 28.0 °F 20.8 °F 21.0 °F 75% 30.05 in 10.0 mi ESE 6.9 mph - N/A   Overcast
6:25 AM 28.4 °F 21.2 °F 21.2 °F 74% 29.99 in 2.5 mi SE 6.9 mph - 0.00 in Snow Light Snow
6:53 AM 28.0 °F 20.0 °F 25.0 °F 88% 30.03 in 3.0 mi ESE 8.1 mph - 0.00 in Snow Light Snow
7:07 AM 28.4 °F 19.7 °F 24.8 °F 86% 29.98 in 2.5 mi ESE 9.2 mph - 0.00 in Snow Light Snow
7:16 AM 28.4 °F 19.1 °F 26.6 °F 93% 29.98 in 1.8 mi ESE 10.4 mph - 0.00 in Snow Light Snow
7:25 AM 28.4 °F 18.5 °F 26.6 °F 93% 29.97 in 2.0 mi ESE 11.5 mph - 0.00 in Snow Light Snow
7:34 AM 28.4 °F 19.1 °F 26.6 °F 93% 29.97 in 5.0 mi ESE 10.4 mph - 0.00 in Snow Light Snow
7:53 AM 28.0 °F 18.1 °F 26.1 °F 92% 30.00 in 1.8 mi ESE 11.5 mph - 0.00 in Snow Light Snow
8:24 AM 28.4 °F 18.5 °F 26.6 °F 93% 29.95 in 1.2 mi ESE 11.5 mph - 0.01 in Snow Light Snow
8:31 AM 28.4 °F 18.0 °F 26.6 °F 93% 29.95 in 2.0 mi ESE 12.7 mph - 0.01 in Snow Light Snow
8:53 AM 28.9 °F 18.2 °F 28.0 °F 96% 29.99 in 3.0 mi ESE 13.8 mph - 0.01 in   Overcast
9:12 AM 28.4 °F 18.0 °F 28.4 °F 100% 29.93 in 2.0 mi ESE 12.7 mph - 0.01 in Snow Light Snow
9:20 AM 28.4 °F 18.0 °F 28.4 °F 100% 29.93 in 1.0 mi ESE 12.7 mph - 0.01 in Snow Light Snow
9:29 AM 28.4 °F 18.0 °F 26.6 °F 93% 29.93 in 0.8 mi ESE 12.7 mph - 0.01 in Snow Light Snow
9:42 AM 28.4 °F 18.0 °F 26.6 °F 93% 29.92 in 1.5 mi ESE 12.7 mph - 0.02 in Snow Light Snow
9:53 AM 28.0 °F 17.5 °F 27.0 °F 96% 29.96 in 1.2 mi ESE 12.7 mph - 0.02 in Snow Light Snow
10:53 AM 28.9 °F 18.6 °F 27.0 °F 92% 29.92 in 1.0 mi ESE 12.7 mph - 0.01 in Snow Light Snow
11:09 AM 28.4 °F 18.0 °F 28.4 °F 100% 29.86 in 0.5 mi ESE 12.7 mph - 0.01 in Fog , Snow Snow
11:53 AM 28.9 °F 17.3 °F 28.0 °F 96% 29.88 in 1.2 mi ESE 16.1 mph - 0.02 in Snow Light Snow
12:48 PM 30.2 °F 18.9 °F 28.4 °F 93% 29.80 in 2.0 mi ESE 16.1 mph - 0.00 in Snow Light Snow
12:53 PM 28.9 °F 17.3 °F 28.0 °F 96% 29.84 in 2.0 mi ESE 16.1 mph - 0.00 in Snow Light Snow
1:03 PM 28.4 °F 16.2 °F 26.6 °F 93% 29.78 in 1.8 mi ESE 17.3 mph 24.2 mph 0.00 in Snow Light Snow
1:50 PM 28.4 °F 17.5 °F 28.4 °F 100% 29.75 in 3.0 mi East 13.8 mph 23.0 mph 0.01 in Snow Light Snow
1:53 PM 28.9 °F 17.7 °F 28.0 °F 96% 29.79 in 5.0 mi ESE 15.0 mph 24.2 mph 0.01 in Snow Light Snow
2:30 PM 28.4 °F 16.6 °F 28.4 °F 100% 29.73 in 1.8 mi East 16.1 mph 21.9 mph 0.00 in Snow Light Snow
2:48 PM 30.2 °F 19.8 °F 28.4 °F 93% 29.72 in 0.8 mi East 13.8 mph - 0.00 in Snow Light Snow
2:53 PM 30.0 °F 19.5 °F 28.0 °F 92% 29.76 in 1.2 mi East 13.8 mph - 0.00 in Snow Light Snow
2:58 PM 30.2 °F 20.8 °F 28.4 °F 93% 29.71 in 3.0 mi East 11.5 mph - 0.00 in Snow Light Snow
3:48 PM 30.2 °F 20.8 °F 30.2 °F 100% 29.68 in 1.8 mi East 11.5 mph - 0.02 in Snow Light Snow
3:53 PM 30.9 °F 22.2 °F 30.0 °F 96% 29.72 in 1.2 mi East 10.4 mph - 0.02 in Snow Light Snow
4:51 PM 32.0 °F 23.6 °F 30.2 °F 93% 29.64 in 0.5 mi East 10.4 mph - 0.02 in Fog , Snow Snow
4:53 PM 32.0 °F 24.2 °F 30.9 °F 96% 29.68 in 0.5 mi East 9.2 mph - 0.02 in Fog , Snow Snow
5:13 PM 32.0 °F 24.2 °F 30.2 °F 93% 29.64 in 0.2 mi East 9.2 mph - 0.02 in Fog , Snow Light Snow
5:53 PM 32.0 °F 24.2 °F 30.9 °F 96% 29.66 in 0.2 mi East 9.2 mph - 0.05 in Fog , Snow Light Snow
6:53 PM 32.0 °F 24.8 °F 30.9 °F 96% 29.65 in 0.2 mi East 8.1 mph - 0.03 in Fog , Snow Snow
7:00 PM 32.0 °F 24.8 °F 30.2 °F 93% 29.60 in 0.2 mi East 8.1 mph - 0.01 in Fog , Snow Snow
7:53 PM 32.0 °F 25.6 °F 30.9 °F 96% 29.64 in 0.2 mi ENE 6.9 mph - 0.07 in Fog , Snow Light Snow
8:30 PM 32.0 °F 24.8 °F 30.2 °F 93% 29.58 in 0.8 mi ENE 8.1 mph - 0.02 in Snow Light Snow
8:38 PM 32.0 °F 24.8 °F 30.2 °F 93% 29.58 in 1.5 mi ENE 8.1 mph - 0.02 in Snow Light Snow
8:53 PM 32.0 °F 25.6 °F 30.9 °F 96% 29.62 in 0.8 mi ENE 6.9 mph - 0.03 in Snow Light Snow
9:18 PM 32.0 °F 24.2 °F 30.2 °F 93% 29.57 in 1.0 mi ENE 9.2 mph - 0.01 in Snow Light Snow
9:53 PM 32.0 °F 24.8 °F 30.9 °F 96% 29.60 in 1.0 mi ENE 8.1 mph - 0.05 in Snow Light Snow
10:24 PM 32.0 °F 25.6 °F 30.2 °F 93% 29.56 in 1.5 mi ENE 6.9 mph - 0.00 in Snow Light Snow
10:53 PM 32.0 °F 26.4 °F 30.9 °F 96% 29.59 in 1.5 mi ENE 5.8 mph - 0.00 in Snow Light Snow
11:53 PM 32.0 °F 27.5 °F 30.9 °F 96% 29.59 in 0.8 mi NW 4.6 mph - 0.03 in Snow Light Snow